,,Stat5,,Stat1,,Stat2,,Stat3,,Stat4,,Wind1,,Wind1,
time,status,PA1M_AVG,status,PR1M_SUM,status,RH1M_AVG,status,SR1M_AVG,status,TA1M_AVG,status,W1dAve1m,status,W1sAve1m,
2003-08-17, 00:00:00,VALID,918.698,VALID,0,VALID,92.7801,VALID,0.0339617,VALID,19.4446,VALID,18,VALID,0.576891,
2003-08-17, 00:01:00,VALID,918.656,VALID,0,VALID,92.8297,VALID,0.0679233,VALID,19.4439,VALID,29,VALID,0.618707,
2003-08-17, 00:02:00,VALID,918.634,VALID,0,VALID,92.7648,VALID,0.0339617,VALID,19.4602,VALID,19,VALID,0.195112,
2003-08-17, 00:03:00,VALID,918.64,VALID,0,VALID,92.7203,VALID,0.101885,VALID,19.4667,VALID,10,VALID,0.132179,
2003-08-17, 00:04:00,VALID,918.637,VALID,0,VALID,92.5779,VALID,0.0509425,VALID,19.4637,VALID,10,VALID,0.0351563,
2003-08-17, 00:05:00,VALID,918.628,VALID,0,VALID,92.658,VALID,0,VALID,19.4769,VALID,10,VALID,0.367188,
2003-08-17, 00:06:00,VALID,918.64,VALID,0,VALID,92.7458,VALID,-0.101885,VALID,19.4779,VALID,10,VALID,0.677794,
2003-08-17, 00:07:00,VALID,918.63,VALID,0,VALID,92.7699,VALID,-0.0849042,VALID,19.4485,VALID,12,VALID,0.829975,
2003-08-17, 00:08:00,VALID,918.629,VALID,0,VALID,92.8856,VALID,-0.0849042,VALID,19.4359,VALID,19,VALID,0.652872,
2003-08-17, 00:09:00,VALID,918.626,VALID,0,VALID,92.8894,VALID,-0.0679233,VALID,19.4326,VALID,17,VALID,0.713477,
2003-08-17, 00:10:00,VALID,918.624,VALID,0,VALID,92.6631,VALID,-0.0849042,VALID,19.449,VALID,14,VALID,1.03783,
2003-08-17, 00:11:00,VALID,918.632,VALID,0,VALID,92.3859,VALID,-0.0679233,VALID,19.4947,VALID,17,VALID,0.598437,
2003-08-17, 00:12:00,VALID,918.644,VALID,0,VALID,92.2829,VALID,-0.0679233,VALID,19.5236,VALID,13,VALID,0.644431,
2003-08-17, 00:13:00,VALID,918.631,VALID,0,VALID,91.9574,VALID,-0.0849042,VALID,19.5688,VALID,22,VALID,0.532252,
2003-08-17, 00:14:00,VALID,918.647,VALID,0,VALID,91.9345,VALID,-0.101885,VALID,19.6237,VALID,1,VALID,0,
2003-08-17, 00:15:00,VALID,918.656,VALID,0,VALID,91.9485,VALID,-0.101885,VALID,19.6205,VALID,1,VALID,0,
2003-08-17, 00:16:00,VALID,918.66,VALID,0,VALID,92.1608,VALID,-0.101885,VALID,19.6331,VALID,3,VALID,0.154046,
2003-08-17, 00:17:00,VALID,918.654,VALID,0,VALID,92.3439,VALID,-0.0849042,VALID,19.6374,VALID,11,VALID,0.222155,
2003-08-17, 00:18:00,VALID,918.669,VALID,0,VALID,92.3363,VALID,-0.0849042,VALID,19.6041,VALID,24,VALID,0.402961,
2003-08-17, 00:19:00,VALID,918.644,VALID,0,VALID,92.5258,VALID,-0.0679233,VALID,19.5591,VALID,45,VALID,0.319922,
2003-08-17, 00:20:00,VALID,918.646,VALID,0,VALID,92.6911,VALID,-0.101885,VALID,19.534,VALID,45,VALID,0.0516827,
2003-08-17, 00:21:00,VALID,918.664,VALID,0,VALID,92.9022,VALID,-0.118866,VALID,19.5044,VALID,45,VALID,0.0144231,
2003-08-17, 00:22:00,VALID,918.665,VALID,0,VALID,93.0459,VALID,-0.0849042,VALID,19.4781,VALID,45,VALID,0.181127,
2003-08-17, 00:23:00,VALID,918.675,VALID,0,VALID,93.2658,VALID,-0.101885,VALID,19.4498,VALID,45,VALID,0.272656,
2003-08-17, 00:24:00,VALID,918.689,VALID,0,VALID,93.421,VALID,-0.101885,VALID,19.4304,VALID,45,VALID,0.133413,
2003-08-17, 00:25:00,VALID,918.695,VALID,0,VALID,93.4668,VALID,-0.0849042,VALID,19.4078,VALID,45,VALID,0.173478,
2003-08-17, 00:26:00,VALID,918.693,VALID,0,VALID,93.4731,VALID,-0.0679233,VALID,19.3718,VALID,45,VALID,0.232525,
2003-08-17, 00:27:00,VALID,918.693,VALID,0,VALID,93.5202,VALID,-0.101885,VALID,19.3397,VALID,52,VALID,0.22207,
2003-08-17, 00:28:00,VALID,918.689,VALID,0,VALID,93.6753,VALID,-0.0849042,VALID,19.3362,VALID,62,VALID,0.264223,
2003-08-17, 00:29:00,VALID,918.689,VALID,0,VALID,93.7274,VALID,-0.0679233,VALID,19.3434,VALID,62,VALID,0.109976,
2003-08-17, 00:30:00,VALID,918.701,VALID,0,VALID,93.6257,VALID,-0.0849042,VALID,19.3561,VALID,62,VALID,0.0633224,
2003-08-17, 00:31:00,VALID,918.681,VALID,0,VALID,93.5303,VALID,-0.118866,VALID,19.3725,VALID,60,VALID,0.0869141,
2003-08-17, 00:32:00,VALID,918.672,VALID,0,VALID,93.6702,VALID,-0.0849042,VALID,19.3822,VALID,57,VALID,0.313702,
2003-08-17, 00:33:00,VALID,918.661,VALID,0,VALID,93.6588,VALID,-0.101885,VALID,19.3785,VALID,56,VALID,0.413061,
2003-08-17, 00:34:00,VALID,918.654,VALID,0,VALID,93.6511,VALID,-0.101885,VALID,19.3494,VALID,56,VALID,0.170025,
2003-08-17, 00:35:00,VALID,918.641,VALID,0,VALID,93.4362,VALID,-0.101885,VALID,19.3496,VALID,53,VALID,0.220703,
2003-08-17, 00:36:00,VALID,918.634,VALID,0,VALID,93.2391,VALID,-0.0849042,VALID,19.3233,VALID,51,VALID,0.183494,
2003-08-17, 00:37:00,VALID,918.641,VALID,0,VALID,93.201,VALID,-0.0849042,VALID,19.34,VALID,51,VALID,0.0989583,
2003-08-17, 00:38:00,VALID,918.665,VALID,0,VALID,93.3637,VALID,-0.101885,VALID,19.3496,VALID,51,VALID,0,
2003-08-17, 00:39:00,VALID,918.659,VALID,0,VALID,93.4324,VALID,-0.0849042,VALID,19.3432,VALID,51,VALID,0.136133,
2003-08-17, 00:40:00,VALID,918.664,VALID,0,VALID,93.6117,VALID,-0.0849042,VALID,19.3201,VALID,51,VALID,0.275841,
2003-08-17, 00:41:00,VALID,918.684,VALID,0,VALID,93.9449,VALID,-0.0849042,VALID,19.2813,VALID,68,VALID,0.253405,
2003-08-17, 00:42:00,VALID,918.689,VALID,0,VALID,94.2005,VALID,-0.0849042,VALID,19.2557,VALID,127,VALID,0.545436,
2003-08-17, 00:43:00,VALID,918.674,VALID,0,VALID,94.554,VALID,-0.0679233,VALID,19.2207,VALID,141,VALID,0.671094,
2003-08-17, 00:44:00,VALID,918.66,VALID,0,VALID,94.8096,VALID,-0.101885,VALID,19.1782,VALID,133,VALID,0.649239,
2003-08-17, 00:45:00,VALID,918.68,VALID,0,VALID,94.9418,VALID,-0.0849042,VALID,19.1494,VALID,129,VALID,0.912861,
2003-08-17, 00:46:00,VALID,918.683,VALID,0,VALID,94.9812,VALID,-0.101885,VALID,19.1333,VALID,113,VALID,0.634046,
2003-08-17, 00:47:00,VALID,918.71,VALID,0,VALID,95.027,VALID,-0.101885,VALID,19.1211,VALID,92,VALID,0.470508,
2003-08-17, 00:48:00,VALID,918.721,VALID,0,VALID,95.2292,VALID,-0.101885,VALID,19.0843,VALID,86,VALID,0.506811,
2003-08-17, 00:49:00,VALID,918.741,VALID,0,VALID,95.322,VALID,-0.101885,VALID,19.0394,VALID,86,VALID,0.644631,
2003-08-17, 00:50:00,VALID,918.746,VALID,0,VALID,95.5687,VALID,-0.0509425,VALID,19.0006,VALID,86,VALID,0.686266,
2003-08-17, 00:51:00,VALID,918.75,VALID,0,VALID,95.8523,VALID,0,VALID,18.9542,VALID,86,VALID,0.646094,
2003-08-17, 00:52:00,VALID,918.763,VALID,0,VALID,96.0189,VALID,0.0169808,VALID,18.9152,VALID,86,VALID,0.454728,
2003-08-17, 00:53:00,VALID,918.763,VALID,0,VALID,96.1282,VALID,0.0169808,VALID,18.8961,VALID,96,VALID,0.586939,
2003-08-17, 00:54:00,VALID,918.773,VALID,0,VALID,96.1664,VALID,0,VALID,18.8698,VALID,119,VALID,0.759663,
2003-08-17, 00:55:00,VALID,918.77,VALID,0,VALID,96.0443,VALID,0,VALID,18.8735,VALID,115,VALID,1.03887,
2003-08-17, 00:56:00,VALID,918.767,VALID,0,VALID,95.7785,VALID,0.0169808,VALID,18.8929,VALID,123,VALID,0.973357,
2003-08-17, 00:57:00,VALID,918.761,VALID,0,VALID,95.4225,VALID,0,VALID,18.951,VALID,116,VALID,0.96234,
2003-08-17, 00:58:00,VALID,918.766,VALID,0,VALID,95.0156,VALID,0.0509425,VALID,19.0029,VALID,122,VALID,0.996299,
2003-08-17, 00:59:00,VALID,918.762,VALID,0,VALID,94.7256,VALID,0,VALID,19.0476,VALID,103,VALID,0.693359,
2003-08-17, 01:00:00,VALID,918.752,VALID,0,VALID,94.629,VALID,0.0169808,VALID,19.0707,VALID,99,VALID,0.90605,
2003-08-17, 01:01:00,VALID,918.744,VALID,0,VALID,94.5247,VALID,0,VALID,19.0739,VALID,103,VALID,0.941707,
2003-08-17, 01:02:00,VALID,918.739,VALID,0,VALID,94.5222,VALID,0.0339617,VALID,19.0933,VALID,109,VALID,0.703536,
2003-08-17, 01:03:00,VALID,918.758,VALID,0,VALID,94.451,VALID,0.0169808,VALID,19.103,VALID,125,VALID,0.918555,
2003-08-17, 01:04:00,VALID,918.758,VALID,0,VALID,94.3823,VALID,0.0169808,VALID,19.1226,VALID,119,VALID,0.4998,
2003-08-17, 01:05:00,VALID,918.741,VALID,0,VALID,94.3607,VALID,0.0169808,VALID,19.136,VALID,117,VALID,0.510216,
2003-08-17, 01:06:00,VALID,918.74,VALID,0,VALID,94.3823,VALID,0.0339617,VALID,19.1226,VALID,117,VALID,0.563939,
2003-08-17, 01:07:00,VALID,918.723,VALID,0,VALID,94.3988,VALID,0,VALID,19.1127,VALID,100,VALID,0.675391,
2003-08-17, 01:08:00,VALID,918.689,VALID,0,VALID,94.6277,VALID,0,VALID,19.0866,VALID,80,VALID,0.761018,
2003-08-17, 01:09:00,VALID,918.664,VALID,0,VALID,94.5502,VALID,0.0339617,VALID,19.0739,VALID,104,VALID,0.861579,
2003-08-17, 01:10:00,VALID,918.664,VALID,0,VALID,94.2933,VALID,0.0169808,VALID,19.0938,VALID,104,VALID,0.592311,
2003-08-17, 01:11:00,VALID,918.65,VALID,0,VALID,94.0161,VALID,0,VALID,19.139,VALID,104,VALID,0.496094,
2003-08-17, 01:12:00,VALID,918.641,VALID,0,VALID,93.9741,VALID,-0.0169808,VALID,19.1782,VALID,63,VALID,0.488582,
2003-08-17, 01:13:00,VALID,918.617,VALID,0,VALID,93.997,VALID,0,VALID,19.1683,VALID,65,VALID,0.467748,
2003-08-17, 01:14:00,VALID,918.587,VALID,0,VALID,94.1763,VALID,0,VALID,19.1293,VALID,115,VALID,0.804688,
2003-08-17, 01:15:00,VALID,918.582,VALID,0,VALID,94.3047,VALID,0,VALID,19.1224,VALID,58,VALID,0.763086,
2003-08-17, 01:16:00,VALID,918.571,VALID,0,VALID,94.3454,VALID,0,VALID,19.0742,VALID,64,VALID,0.895633,
2003-08-17, 01:17:00,VALID,918.539,VALID,0,VALID,94.4446,VALID,0,VALID,19.0324,VALID,85,VALID,0.908053,
2003-08-17, 01:18:00,VALID,918.549,VALID,0,VALID,94.3098,VALID,0.0169808,VALID,19.0451,VALID,85,VALID,0.693873,
2003-08-17, 01:19:00,VALID,918.545,VALID,0,VALID,94.2844,VALID,0.0169808,VALID,19.0513,VALID,85,VALID,0.689453,
2003-08-17, 01:20:00,VALID,918.536,VALID,0,VALID,94.3581,VALID,0,VALID,19.0357,VALID,82,VALID,0.698117,
2003-08-17, 01:21:00,VALID,918.534,VALID,0,VALID,94.4586,VALID,-0.101885,VALID,19.014,VALID,96,VALID,0.759415,
2003-08-17, 01:22:00,VALID,918.533,VALID,0,VALID,94.4739,VALID,-0.101885,VALID,19.0304,VALID,89,VALID,0.592722,
2003-08-17, 01:23:00,VALID,918.52,VALID,0,VALID,94.5552,VALID,-0.101885,VALID,19.0302,VALID,89,VALID,0.480469,
2003-08-17, 01:24:00,VALID,918.519,VALID,0,VALID,94.671,VALID,-0.101885,VALID,19.0205,VALID,88,VALID,0.577524,
2003-08-17, 01:25:00,VALID,918.519,VALID,0,VALID,94.8515,VALID,-0.0849042,VALID,19.0046,VALID,63,VALID,0.724359,
2003-08-17, 01:26:00,VALID,918.526,VALID,0,VALID,94.8808,VALID,-0.101885,VALID,18.9464,VALID,46,VALID,0.47574,
2003-08-17, 01:27:00,VALID,918.543,VALID,0,VALID,95.0957,VALID,-0.101885,VALID,18.8788,VALID,337,VALID,0.607422,
2003-08-17, 01:28:00,VALID,918.536,VALID,0,VALID,95.3653,VALID,-0.135847,VALID,18.859,VALID,320,VALID,0.661258,
2003-08-17, 01:29:00,VALID,918.538,VALID,0,VALID,95.294,VALID,-0.0849042,VALID,18.9178,VALID,320,VALID,0.161458,
2003-08-17, 01:30:00,VALID,918.536,VALID,0,VALID,95.0893,VALID,-0.101885,VALID,18.9536,VALID,54,VALID,0.633018,
2003-08-17, 01:31:00,VALID,918.507,VALID,0,VALID,95.0117,VALID,-0.101885,VALID,18.9176,VALID,55,VALID,0.94375,
2003-08-17, 01:32:00,VALID,918.491,VALID,0,VALID,95.1415,VALID,-0.101885,VALID,18.8957,VALID,45,VALID,0.980369,
2003-08-17, 01:33:00,VALID,918.498,VALID,0,VALID,95.2076,VALID,-0.0849042,VALID,18.8468,VALID,37,VALID,0.657252,
2003-08-17, 01:34:00,VALID,918.48,VALID,0,VALID,95.3627,VALID,-0.101885,VALID,18.8013,VALID,37,VALID,0.396382,
2003-08-17, 01:35:00,VALID,918.465,VALID,0,VALID,95.6437,VALID,-0.0849042,VALID,18.7845,VALID,54,VALID,0.599805,
2003-08-17, 01:36:00,VALID,918.455,VALID,0,VALID,95.7722,VALID,0.0509425,VALID,18.7838,VALID,87,VALID,1.11438,
2003-08-17, 01:37:00,VALID,918.411,VALID,0,VALID,95.8815,VALID,0.0169808,VALID,18.8032,VALID,90,VALID,1.28446,
2003-08-17, 01:38:00,VALID,918.399,VALID,0,VALID,95.7162,VALID,0.0509425,VALID,18.8225,VALID,79,VALID,1.00535,
2003-08-17, 01:39:00,VALID,918.386,VALID,0,VALID,95.5,VALID,0.0339617,VALID,18.8126,VALID,71,VALID,0.400586,
2003-08-17, 01:40:00,VALID,918.381,VALID,0,VALID,95.5178,VALID,0.0169808,VALID,18.7838,VALID,70,VALID,0.144431,
2003-08-17, 01:41:00,VALID,918.38,VALID,0,VALID,95.715,VALID,0,VALID,18.7679,VALID,35,VALID,0.330529,
2003-08-17, 01:42:00,VALID,918.392,VALID,0,VALID,95.9718,VALID,0.0169808,VALID,18.8002,VALID,330,VALID,0.713199,
2003-08-17, 01:43:00,VALID,918.391,VALID,0,VALID,96.0049,VALID,-0.0169808,VALID,18.823,VALID,23,VALID,0.419336,
2003-08-17, 01:44:00,VALID,918.382,VALID,0,VALID,95.9451,VALID,0,VALID,18.8707,VALID,58,VALID,0.944712,
2003-08-17, 01:45:00,VALID,918.366,VALID,0,VALID,95.3869,VALID,0,VALID,18.9418,VALID,84,VALID,0.892628,
2003-08-17, 01:46:00,VALID,918.373,VALID,0,VALID,94.8248,VALID,0,VALID,19.0064,VALID,61,VALID,0.45847,
2003-08-17, 01:47:00,VALID,918.391,VALID,0,VALID,94.5718,VALID,0.0169808,VALID,19.0486,VALID,38,VALID,0.420898,
2003-08-17, 01:48:00,VALID,918.404,VALID,0,VALID,94.4611,VALID,0.0509425,VALID,19.0193,VALID,36,VALID,0.393429,
2003-08-17, 01:49:00,VALID,918.409,VALID,0,VALID,94.5883,VALID,0,VALID,19.0131,VALID,37,VALID,0.528045,
2003-08-17, 01:50:00,VALID,918.42,VALID,0,VALID,94.6265,VALID,-0.0339617,VALID,18.9745,VALID,49,VALID,1.08409,
2003-08-17, 01:51:00,VALID,918.43,VALID,0,VALID,95.1046,VALID,-0.0339617,VALID,18.9434,VALID,57,VALID,1.12363,
2003-08-17, 01:52:00,VALID,918.435,VALID,0,VALID,95.0016,VALID,-0.0509425,VALID,18.9889,VALID,59,VALID,1.08353,
2003-08-17, 01:53:00,VALID,918.444,VALID,0,VALID,94.6557,VALID,-0.0509425,VALID,19.0602,VALID,47,VALID,0.66847,
2003-08-17, 01:54:00,VALID,918.452,VALID,0,VALID,94.161,VALID,-0.0679233,VALID,19.0597,VALID,10,VALID,0.613692,
2003-08-17, 01:55:00,VALID,918.473,VALID,0,VALID,94.1801,VALID,-0.0849042,VALID,19.0217,VALID,10,VALID,0.0375,
2003-08-17, 01:56:00,VALID,918.454,VALID,0,VALID,94.5374,VALID,-0.101885,VALID,18.9919,VALID,10,VALID,0.423478,
2003-08-17, 01:57:00,VALID,918.42,VALID,0,VALID,94.6087,VALID,-0.0679233,VALID,18.9951,VALID,25,VALID,0.524639,
2003-08-17, 01:58:00,VALID,918.403,VALID,0,VALID,94.7447,VALID,-0.0849042,VALID,18.976,VALID,50,VALID,0.836143,
2003-08-17, 01:59:00,VALID,918.356,VALID,0,VALID,94.9711,VALID,-0.0849042,VALID,18.9787,VALID,75,VALID,0.977734,
2003-08-17, 02:00:00,VALID,918.329,VALID,0,VALID,94.835,VALID,-0.101885,VALID,18.9919,VALID,87,VALID,0.714343,
2003-08-17, 02:01:00,VALID,918.314,VALID,0,VALID,94.718,VALID,-0.101885,VALID,18.9822,VALID,87,VALID,0.36879,
2003-08-17, 02:02:00,VALID,918.309,VALID,0,VALID,94.8083,VALID,-0.0849042,VALID,18.9531,VALID,87,VALID,0.309211,
2003-08-17, 02:03:00,VALID,918.279,VALID,0,VALID,94.9583,VALID,-0.0849042,VALID,18.9213,VALID,87,VALID,0.396289,
2003-08-17, 02:04:00,VALID,918.252,VALID,0,VALID,95.2088,VALID,-0.101885,VALID,18.8855,VALID,108,VALID,0.712139,
2003-08-17, 02:05:00,VALID,918.238,VALID,0,VALID,95.5318,VALID,-0.101885,VALID,18.8572,VALID,115,VALID,0.495066,
2003-08-17, 02:06:00,VALID,918.221,VALID,0,VALID,95.6577,VALID,-0.101885,VALID,18.8247,VALID,125,VALID,0.527344,
2003-08-17, 02:07:00,VALID,918.218,VALID,0,VALID,95.8396,VALID,-0.0679233,VALID,18.8013,VALID,121,VALID,0.605859,
2003-08-17, 02:08:00,VALID,918.211,VALID,0,VALID,95.7912,VALID,-0.101885,VALID,18.8011,VALID,119,VALID,0.341546,
2003-08-17, 02:09:00,VALID,918.227,VALID,0,VALID,95.673,VALID,-0.0849042,VALID,18.7951,VALID,105,VALID,0.11879,
2003-08-17, 02:10:00,VALID,918.238,VALID,0,VALID,95.7226,VALID,-0.0849042,VALID,18.7531,VALID,102,VALID,0.0117188,
2003-08-17, 02:11:00,VALID,918.243,VALID,0,VALID,95.954,VALID,-0.0339617,VALID,18.7171,VALID,102,VALID,0.142969,
2003-08-17, 02:12:00,VALID,918.238,VALID,0,VALID,96.0888,VALID,-0.101885,VALID,18.695,VALID,102,VALID,0.130008,
2003-08-17, 02:13:00,VALID,918.219,VALID,0,VALID,96.2401,VALID,-0.0849042,VALID,18.6858,VALID,102,VALID,0.348758,
2003-08-17, 02:14:00,VALID,918.217,VALID,0,VALID,96.3965,VALID,-0.0679233,VALID,18.6593,VALID,122,VALID,0.545436,
2003-08-17, 02:15:00,VALID,918.217,VALID,0,VALID,96.6013,VALID,-0.0509425,VALID,18.6632,VALID,142,VALID,0.81875,
2003-08-17, 02:16:00,VALID,918.194,VALID,0,VALID,96.633,VALID,-0.0339617,VALID,18.6625,VALID,122,VALID,1.17388,
2003-08-17, 02:17:00,VALID,918.161,VALID,0,VALID,96.4995,VALID,-0.0679233,VALID,18.6853,VALID,104,VALID,1.02444,
2003-08-17, 02:18:00,VALID,918.131,VALID,0,VALID,96.0863,VALID,-0.0679233,VALID,18.7499,VALID,114,VALID,0.79009,
2003-08-17, 02:19:00,VALID,918.127,VALID,0,VALID,95.5357,VALID,-0.0679233,VALID,18.8306,VALID,123,VALID,0.573633,
2003-08-17, 02:20:00,VALID,918.122,VALID,0,VALID,94.9889,VALID,-0.101885,VALID,18.9111,VALID,123,VALID,0.33774,
2003-08-17, 02:21:00,VALID,918.09,VALID,0,VALID,94.5438,VALID,-0.0679233,VALID,18.979,VALID,116,VALID,0.709535,
2003-08-17, 02:22:00,VALID,918.053,VALID,0,VALID,94.0135,VALID,-0.0679233,VALID,19.0535,VALID,107,VALID,0.950863,
2003-08-17, 02:23:00,VALID,918.017,VALID,0,VALID,93.5456,VALID,-0.101885,VALID,19.1215,VALID,110,VALID,1.07949,
2003-08-17, 02:24:00,VALID,917.993,VALID,0,VALID,93.2175,VALID,-0.0679233,VALID,19.1797,VALID,117,VALID,0.839543,
2003-08-17, 02:25:00,VALID,917.989,VALID,0,VALID,93.0649,VALID,-0.101885,VALID,19.209,VALID,106,VALID,0.828726,
2003-08-17, 02:26:00,VALID,917.992,VALID,0,VALID,92.9581,VALID,-0.101885,VALID,19.2189,VALID,111,VALID,0.593339,
2003-08-17, 02:27:00,VALID,917.988,VALID,0,VALID,92.8755,VALID,-0.0849042,VALID,19.244,VALID,85,VALID,1.13398,
2003-08-17, 02:28:00,VALID,917.989,VALID,0,VALID,92.6873,VALID,-0.101885,VALID,19.2669,VALID,82,VALID,1.3752,
2003-08-17, 02:29:00,VALID,917.955,VALID,0,VALID,92.3312,VALID,-0.0679233,VALID,19.3285,VALID,62,VALID,1.56971,
2003-08-17, 02:30:00,VALID,917.935,VALID,0,VALID,92.2091,VALID,-0.0849042,VALID,19.3506,VALID,88,VALID,0.884252,
2003-08-17, 02:31:00,VALID,917.937,VALID,0,VALID,92.4444,VALID,-0.0849042,VALID,19.3019,VALID,97,VALID,0.291992,
2003-08-17, 02:32:00,VALID,917.922,VALID,0,VALID,92.5397,VALID,-0.101885,VALID,19.2247,VALID,113,VALID,0.392628,
2003-08-17, 02:33:00,VALID,917.895,VALID,0,VALID,92.6695,VALID,-0.101885,VALID,19.1698,VALID,126,VALID,0.589744,
2003-08-17, 02:34:00,VALID,917.891,VALID,0,VALID,92.7979,VALID,-0.0849042,VALID,19.1638,VALID,108,VALID,0.425987,
2003-08-17, 02:35:00,VALID,917.889,VALID,0,VALID,92.9607,VALID,0,VALID,19.1144,VALID,42,VALID,0.586719,
2003-08-17, 02:36:00,VALID,917.893,VALID,0,VALID,93.2239,VALID,0.0339617,VALID,19.0034,VALID,39,VALID,0.617188,
2003-08-17, 02:37:00,VALID,917.907,VALID,0,VALID,93.7808,VALID,0,VALID,18.9321,VALID,42,VALID,0.105569,
2003-08-17, 02:38:00,VALID,917.904,VALID,0,VALID,94.1254,VALID,0.0509425,VALID,18.9102,VALID,46,VALID,0.131373,
2003-08-17, 02:39:00,VALID,917.896,VALID,0,VALID,94.3861,VALID,0.0339617,VALID,18.8578,VALID,88,VALID,0.669727,
2003-08-17, 02:40:00,VALID,917.884,VALID,0,VALID,94.6404,VALID,0.0339617,VALID,18.8652,VALID,79,VALID,0.898237,
2003-08-17, 02:41:00,VALID,917.882,VALID,0,VALID,94.6989,VALID,0.0169808,VALID,18.7997,VALID,52,VALID,0.952324,
2003-08-17, 02:42:00,VALID,917.884,VALID,0,VALID,95.0474,VALID,0.0169808,VALID,18.7416,VALID,56,VALID,0.948191,
2003-08-17, 02:43:00,VALID,917.868,VALID,0,VALID,95.2661,VALID,0.0169808,VALID,18.7261,VALID,58,VALID,0.673633,
2003-08-17, 02:44:00,VALID,917.86,VALID,0,VALID,95.3767,VALID,0.0169808,VALID,18.6975,VALID,57,VALID,0.788862,
2003-08-17, 02:45:00,VALID,917.827,VALID,0,VALID,95.7633,VALID,0.0339617,VALID,18.6772,VALID,56,VALID,0.936098,
2003-08-17, 02:46:00,VALID,917.818,VALID,0,VALID,95.9476,VALID,0.0509425,VALID,18.7093,VALID,55,VALID,0.913857,
2003-08-17, 02:47:00,VALID,917.815,VALID,0,VALID,95.6081,VALID,0.0509425,VALID,18.7803,VALID,59,VALID,0.657031,
2003-08-17, 02:48:00,VALID,917.816,VALID,0,VALID,95.1236,VALID,0.0679233,VALID,18.8421,VALID,78,VALID,0.755008,
2003-08-17, 02:49:00,VALID,917.82,VALID,0,VALID,94.8503,VALID,0.0509425,VALID,18.8811,VALID,78,VALID,0.992588,
2003-08-17, 02:50:00,VALID,917.825,VALID,0,VALID,94.367,VALID,-0.0169808,VALID,18.9141,VALID,83,VALID,0.691201,
2003-08-17, 02:51:00,VALID,917.798,VALID,0,VALID,94.0123,VALID,-0.0849042,VALID,18.9504,VALID,80,VALID,0.6625,
2003-08-17, 02:52:00,VALID,917.8,VALID,0,VALID,93.833,VALID,-0.0849042,VALID,19.002,VALID,76,VALID,0.534255,
2003-08-17, 02:53:00,VALID,917.809,VALID,0,VALID,93.6766,VALID,-0.0849042,VALID,19.0244,VALID,62,VALID,0.264423,
2003-08-17, 02:54:00,VALID,917.822,VALID,0,VALID,93.6473,VALID,-0.101885,VALID,18.9898,VALID,292,VALID,0.329359,
2003-08-17, 02:55:00,VALID,917.822,VALID,0,VALID,94.0606,VALID,-0.101885,VALID,18.9181,VALID,249,VALID,0.0269531,
2003-08-17, 02:56:00,VALID,917.812,VALID,0,VALID,94.4586,VALID,-0.0679233,VALID,18.8763,VALID,167,VALID,0.273838,
2003-08-17, 02:57:00,VALID,917.805,VALID,0,VALID,94.7612,VALID,-0.101885,VALID,18.8403,VALID,115,VALID,0.484575,
2003-08-17, 02:58:00,VALID,917.802,VALID,0,VALID,94.9329,VALID,-0.0849042,VALID,18.7983,VALID,88,VALID,0.620066,
2003-08-17, 02:59:00,VALID,917.784,VALID,0,VALID,95.1961,VALID,-0.0509425,VALID,18.7529,VALID,99,VALID,0.756445,
2003-08-17, 03:00:00,VALID,917.768,VALID,0,VALID,95.4848,VALID,-0.0339617,VALID,18.7139,VALID,101,VALID,0.454928,
2003-08-17, 03:01:00,VALID,917.77,VALID,0,VALID,95.5331,VALID,-0.0679233,VALID,18.7112,VALID,101,VALID,0.0294471,
2003-08-17, 03:02:00,VALID,917.774,VALID,0,VALID,95.4009,VALID,-0.0849042,VALID,18.6821,VALID,101,VALID,0.112664,
2003-08-17, 03:03:00,VALID,917.753,VALID,0,VALID,95.6298,VALID,-0.0849042,VALID,18.66,VALID,53,VALID,0.380859,
2003-08-17, 03:04:00,VALID,917.75,VALID,0,VALID,95.8459,VALID,-0.101885,VALID,18.6634,VALID,46,VALID,0.253405,
2003-08-17, 03:05:00,VALID,917.741,VALID,0,VALID,95.8269,VALID,-0.0339617,VALID,18.656,VALID,63,VALID,0.435897,
2003-08-17, 03:06:00,VALID,917.732,VALID,0,VALID,95.7849,VALID,0.0169808,VALID,18.6553,VALID,156,VALID,0.419819,
2003-08-17, 03:07:00,VALID,917.746,VALID,0,VALID,95.8853,VALID,0.0339617,VALID,18.6491,VALID,157,VALID,0.248437,
2003-08-17, 03:08:00,VALID,917.728,VALID,0,VALID,95.9972,VALID,0.0169808,VALID,18.6325,VALID,157,VALID,0.00400641,
2003-08-17, 03:09:00,VALID,917.718,VALID,0,VALID,96.0392,VALID,0,VALID,18.6392,VALID,157,VALID,0.114383,
2003-08-17, 03:10:00,VALID,917.702,VALID,0,VALID,96.0328,VALID,0,VALID,18.6585,VALID,157,VALID,0.000411184,
2003-08-17, 03:11:00,VALID,917.696,VALID,0,VALID,95.8574,VALID,0.0169808,VALID,18.6521,VALID,96,VALID,0.237695,
2003-08-17, 03:12:00,VALID,917.667,VALID,0,VALID,95.7684,VALID,0.0339617,VALID,18.623,VALID,72,VALID,0,
2003-08-17, 03:13:00,VALID,917.653,VALID,0,VALID,95.8218,VALID,0.0169808,VALID,18.5836,VALID,72,VALID,0,
2003-08-17, 03:14:00,VALID,917.646,VALID,0,VALID,96.0316,VALID,0.0339617,VALID,18.5806,VALID,72,VALID,0,
2003-08-17, 03:15:00,VALID,917.636,VALID,0,VALID,95.9057,VALID,0.0679233,VALID,18.5843,VALID,67,VALID,0.0708984,
2003-08-17, 03:16:00,VALID,917.614,VALID,0,VALID,95.7709,VALID,0.0339617,VALID,18.5388,VALID,63,VALID,0,
2003-08-17, 03:17:00,VALID,917.602,VALID,0,VALID,95.996,VALID,0.0169808,VALID,18.5257,VALID,63,VALID,0,
2003-08-17, 03:18:00,VALID,917.588,VALID,0,VALID,96.1155,VALID,-0.0169808,VALID,18.5128,VALID,63,VALID,0.141447,
2003-08-17, 03:19:00,VALID,917.568,VALID,0,VALID,96.0545,VALID,0.0169808,VALID,18.4939,VALID,63,VALID,0.252734,
2003-08-17, 03:20:00,VALID,917.573,VALID,0,VALID,96.0379,VALID,0,VALID,18.4616,VALID,63,VALID,0.158854,
2003-08-17, 03:21:00,VALID,917.575,VALID,0,VALID,96.1231,VALID,0,VALID,18.3968,VALID,58,VALID,0.332131,
2003-08-17, 03:22:00,VALID,917.578,VALID,0,VALID,96.3177,VALID,0,VALID,18.3841,VALID,46,VALID,0.455387,
2003-08-17, 03:23:00,VALID,917.574,VALID,0,VALID,96.4766,VALID,0.0169808,VALID,18.3714,VALID,46,VALID,0.301953,
2003-08-17, 03:24:00,VALID,917.552,VALID,0,VALID,96.6992,VALID,0.0339617,VALID,18.3712,VALID,46,VALID,0.127804,
2003-08-17, 03:25:00,VALID,917.551,VALID,0,VALID,96.7602,VALID,0.0169808,VALID,18.3873,VALID,33,VALID,0.547276,
2003-08-17, 03:26:00,VALID,917.539,VALID,0,VALID,95.3042,VALID,0,VALID,18.3935,VALID,321,VALID,0.918174,
2003-08-17, 03:27:00,VALID,917.546,VALID,0,VALID,94.9927,VALID,0.0339617,VALID,18.5065,VALID,272,VALID,0.144727,
2003-08-17, 03:28:00,VALID,917.542,VALID,0,VALID,95.0156,VALID,0.0169808,VALID,18.549,VALID,349,VALID,0.337139,
2003-08-17, 03:29:00,VALID,917.529,VALID,0,VALID,95.0321,VALID,0.0339617,VALID,18.5324,VALID,356,VALID,0.189704,
2003-08-17, 03:30:00,VALID,917.518,VALID,0,VALID,95.0728,VALID,0.0679233,VALID,18.5033,VALID,356,VALID,0.0962171,
2003-08-17, 03:31:00,VALID,917.509,VALID,0,VALID,95.1262,VALID,0,VALID,18.4777,VALID,357,VALID,0.0980469,
2003-08-17, 03:32:00,VALID,917.527,VALID,0,VALID,95.1097,VALID,0,VALID,18.4484,VALID,55,VALID,0.158454,
2003-08-17, 03:33:00,VALID,917.53,VALID,0,VALID,94.9927,VALID,0,VALID,18.4394,VALID,57,VALID,0.00160256,
2003-08-17, 03:34:00,VALID,917.519,VALID,0,VALID,94.6964,VALID,0,VALID,18.4392,VALID,57,VALID,0,